Date String (YYYY-MM-DD hh:mm:ss) UTC,Instrument flags,Ambient pressure (hPa),Sample flow (lpm),Bypass flow (lpm),Sample temperature (°C),Ambient temperature (°C),ASC tube jacket temperature (°C),LED temperature (°C),Box temperature (°C),Sample RH (%),Span deviation,Mass concentration (μg/m³),Mass concentration (μg/m³),Mass concentration (μg/m³)
DateTimeUTC,F1_M11,P_M11,Q1_M11,Q2_M11,T1_M11,T2_M11,T3_M11,T4_M11,T5_M11,U1_M11,ZSPAN_M11,X2_M11,X0_M11,X1_M11
2021-12-29 19:00:00,,0813.3,5.01,0.00,22.0,21.4,00.0,31.2,23.5,07.2,0000.0,0002.57,0009.75,0001.39
2021-12-29 19:01:00,,0813.3,5.00,0.00,22.0,21.3,00.0,31.2,23.5,07.3,0000.0,0002.63,0009.41,0001.40
2021-12-29 19:02:00,,0813.3,5.02,0.00,21.9,21.3,00.0,31.1,23.5,07.3,0000.0,0002.68,0009.57,0001.42
2021-12-29 19:03:00,,0813.2,4.99,0.00,21.9,21.2,00.0,31.1,23.4,07.3,0000.0,0002.67,0008.90,0001.44
2021-12-29 19:04:00,,0813.1,5.00,0.00,21.9,21.2,00.0,31.1,23.4,07.3,0000.0,0002.64,0008.25,0001.46
2021-12-29 19:05:00,,0813.0,5.00,0.00,21.8,21.2,00.0,31.1,23.3,07.4,0000.0,0002.68,0008.28,0001.47
2021-12-29 19:06:00,,0813.0,5.00,0.00,21.8,21.1,00.0,31.1,23.3,07.4,0000.0,0002.75,0008.99,0001.46
2021-12-29 19:07:00,,0812.9,5.00,0.00,21.8,21.2,00.0,31.0,23.3,07.4,0000.0,0002.70,0008.59,0001.47
2021-12-29 19:08:00,,0813.0,4.99,0.00,21.9,22.1,00.0,31.1,23.7,07.3,0000.0,0002.68,0008.48,0001.46
2021-12-29 19:09:00,,0813.1,4.99,0.00,22.1,23.0,00.0,31.1,24.1,07.2,0000.0,0002.77,0008.60,0001.47
2021-12-29 19:10:00,,0813.1,5.01,0.00,22.2,23.2,00.0,31.1,24.2,07.2,0000.0,0002.93,0009.24,0001.49
2021-12-29 19:11:00,,0813.1,5.00,0.00,22.3,22.9,00.0,31.2,24.2,07.2,0000.0,0002.96,0010.46,0001.49
2021-12-29 19:12:00,,0813.3,5.01,0.00,22.3,22.6,00.0,31.2,24.1,07.3,0000.0,0002.97,0010.70,0001.50
2021-12-29 19:13:00,,0813.2,5.01,0.00,22.3,22.4,00.0,31.2,24.0,07.3,0000.0,0002.92,0010.52,0001.50
2021-12-29 19:14:00,,0813.2,4.98,0.00,22.2,22.2,00.0,31.2,23.9,07.3,0000.0,0002.88,0010.58,0001.49
2021-12-29 19:15:00,,0813.1,5.01,0.00,22.2,22.1,00.0,31.2,23.9,07.2,0000.0,0002.95,0011.60,0001.51
2021-12-29 19:16:00,,0812.9,5.00,0.00,22.2,22.0,00.0,31.2,23.8,07.2,0000.0,0002.90,0011.50,0001.51
2021-12-29 19:17:00,,0812.9,4.99,0.00,22.2,21.9,00.0,31.2,23.8,07.2,0000.0,0002.90,0011.04,0001.52
2021-12-29 19:18:00,,0812.8,5.00,0.00,22.2,21.7,00.0,31.2,23.8,07.2,0000.0,0002.94,0010.61,0001.52
2021-12-29 19:19:00,,0812.9,4.99,0.00,22.1,21.6,00.0,31.2,23.7,07.2,0000.0,0002.97,0010.28,0001.52
2021-12-29 19:20:00,,0812.9,5.01,0.00,22.1,21.6,00.0,31.2,23.7,07.3,0000.0,0002.86,0010.53,0001.52
2021-12-29 19:21:00,,0813.0,5.00,0.00,22.1,21.5,00.0,31.2,23.7,07.3,0000.0,0002.71,0010.44,0001.50
2021-12-29 19:22:00,,0813.0,5.00,0.00,22.1,21.5,00.0,31.2,23.6,07.3,0000.0,0002.69,0009.22,0001.49
2021-12-29 19:23:00,,0813.0,4.98,0.00,22.0,21.4,00.0,31.1,23.6,07.4,0000.0,0002.66,0008.82,0001.50
2021-12-29 19:24:00,,0813.0,5.00,0.00,22.0,21.3,00.0,31.1,23.5,07.4,0000.0,0002.69,0009.09,0001.50
2021-12-29 19:25:00,,0813.2,5.01,0.00,21.9,21.2,00.0,31.1,23.4,07.4,0000.0,0002.70,0010.05,0001.50
2021-12-29 19:26:00,,0812.9,5.00,0.00,21.9,21.2,00.0,31.1,23.3,07.4,0000.0,0002.61,0008.86,0001.48
2021-12-29 19:27:00,,0812.9,5.00,0.00,21.8,21.2,00.0,31.0,23.3,07.4,0000.0,0002.65,0008.74,0001.47
2021-12-29 19:28:00,,0812.9,5.01,0.00,21.8,21.2,00.0,31.0,23.3,07.4,0000.0,0002.62,0008.58,0001.46
2021-12-29 19:29:00,,0813.0,4.99,0.00,21.8,21.2,00.0,31.0,23.3,07.4,0000.0,0002.63,0009.04,0001.46
2021-12-29 19:30:00,,0812.9,5.01,0.00,21.8,21.1,00.0,31.0,23.3,07.5,0000.0,0002.62,0010.00,0001.46
2021-12-29 19:31:00,,0812.9,5.00,0.00,21.8,21.2,00.0,31.0,23.3,07.5,0000.0,0002.62,0010.24,0001.44
2021-12-29 19:32:00,,0812.8,4.99,0.00,21.8,21.2,00.0,31.0,23.3,07.5,0000.0,0002.61,0010.38,0001.44
2021-12-29 19:33:00,,0812.8,5.00,0.00,21.8,21.2,00.0,30.9,23.3,07.5,0000.0,0002.56,0010.44,0001.43
2021-12-29 19:34:00,,0812.9,5.01,0.00,21.7,21.1,00.0,30.9,23.3,07.4,0000.0,0002.55,0010.71,0001.43
2021-12-29 19:35:00,,0812.9,5.00,0.00,21.7,21.1,00.0,30.9,23.3,07.5,0000.0,0002.53,0010.50,0001.42
2021-12-29 19:36:00,,0813.0,5.00,0.00,21.7,21.1,00.0,30.9,23.3,07.5,0000.0,0002.55,0009.56,0001.43
2021-12-29 19:37:00,,0813.0,5.00,0.00,21.7,21.0,00.0,30.9,23.3,07.5,0000.0,0002.54,0009.66,0001.43
2021-12-29 19:38:00,,0812.9,5.00,0.00,21.7,21.0,00.0,30.9,23.3,07.5,0000.0,0002.51,0009.91,0001.41
2021-12-29 19:39:00,,0812.8,5.01,0.00,21.7,21.1,00.0,30.8,23.3,07.5,0000.0,0002.53,0010.26,0001.41
2021-12-29 19:40:00,,0812.8,5.00,0.00,21.7,21.1,00.0,30.8,23.3,07.6,0000.0,0002.44,0009.85,0001.40
2021-12-29 19:41:00,,0812.9,4.99,0.00,21.7,21.2,00.0,30.8,23.3,07.5,0000.0,0002.46,0009.90,0001.40
2021-12-29 19:42:00,,0812.9,5.01,0.00,21.8,21.9,00.0,30.9,23.6,07.5,0000.0,0002.46,0009.77,0001.39
2021-12-29 19:43:00,,0812.8,5.00,0.00,22.0,22.9,00.0,30.9,24.0,07.5,0000.0,0002.45,0009.88,0001.38
2021-12-29 19:44:00,,0812.8,5.00,0.00,22.1,23.1,00.0,31.0,24.1,07.4,0000.0,0002.41,0009.74,0001.37
2021-12-29 19:45:00,,0812.7,5.01,0.00,22.2,22.8,00.0,31.0,24.1,07.4,0000.0,0002.38,0010.13,0001.37
2021-12-29 19:46:00,,0812.8,4.99,0.00,22.1,22.5,00.0,31.0,23.9,07.3,0000.0,0002.44,0010.27,0001.37
2021-12-29 19:47:00,,0812.7,5.00,0.00,22.1,22.3,00.0,31.0,23.8,07.3,0000.0,0002.52,0010.73,0001.38
2021-12-29 19:48:00,,0812.7,4.99,0.00,22.1,22.1,00.0,31.0,23.7,07.3,0000.0,0002.64,0011.39,0001.39
2021-12-29 19:49:00,,0812.7,5.00,0.00,22.1,21.9,00.0,31.0,23.7,07.3,0000.0,0002.79,0012.35,0001.41
2021-12-29 19:50:00,,0812.6,5.00,0.00,22.0,21.8,00.0,31.0,23.7,07.3,0000.0,0002.87,0013.97,0001.43
2021-12-29 19:51:00,,0812.5,5.00,0.00,22.0,21.7,00.0,31.0,23.6,07.3,0000.0,0003.02,0014.79,0001.45
2021-12-29 19:52:00,,0812.5,4.99,0.00,22.0,21.6,00.0,31.0,23.6,07.3,0000.0,0003.05,0015.09,0001.45
2021-12-29 19:53:00,,0812.5,5.00,0.00,21.9,21.5,00.0,31.0,23.5,07.3,0000.0,0003.11,0014.71,0001.47
2021-12-29 19:54:00,,0812.6,5.00,0.00,21.9,21.4,00.0,31.0,23.5,07.3,0000.0,0003.18,0014.78,0001.51
2021-12-29 19:55:00,,0812.6,5.00,0.00,21.9,21.3,00.0,31.0,23.5,07.3,0000.0,0003.22,0014.99,0001.53
2021-12-29 19:56:00,,0812.6,5.00,0.00,21.9,21.3,00.0,31.0,23.5,07.3,0000.0,0003.25,0016.10,0001.55
2021-12-29 19:57:00,,0812.6,5.00,0.00,21.9,21.3,00.0,31.0,23.5,07.3,0000.0,0003.24,0016.95,0001.56
2021-12-29 19:58:00,,0812.6,4.99,0.00,21.9,21.3,00.0,31.0,23.4,07.2,0000.0,0003.27,0017.34,0001.56
2021-12-29 19:59:00,,0812.6,5.01,0.00,21.9,21.3,00.0,31.0,23.5,07.3,0000.0,0003.31,0016.82,0001.58
